Weather History for KNUQ - February, 2007

Change the Weather History Date:

Tuesday, February 6, 2007

  Actual Average Record
Temperature  
Mean Temperature 54 °F 53 °F  
Max Temperature 61 °F 61 °F 77 °F (2011)
Min Temperature 46 °F 44 °F 29 °F (1989)
Degree Days  
Heating Degree Days 12    
Month to date heating degree days  
Since 1 July heating degree days  
Cooling Degree Days 0    
Month to date cooling degree days  
Year to date cooling degree days  
Growing Degree Days 4 (Base 50)    
Moisture  
Dew Point 45 °F    
Average Humidity 76    
Maximum Humidity 93    
Minimum Humidity 50    
Precipitation  
Precipitation 0.00 in 0.11 in 1.30 in (2015)
Month to date precipitation 0.61  
Year to date precipitation 3.36  
Sea Level Pressure  
Sea Level Pressure 30.12 in    
Wind  
Wind Speed 4 mph (ENE)    
Max Wind Speed 12 mph    
Max Gust Speed -    
Visibility 6 miles    
Events      
T = Trace of Precipitation, MM = Missing Value Source: NWS Daily Summary

Daily Weather History Graph

Daily Weather History Graph

Search for Another Location

Airport or City:

Trip Planner

Search our weather history database for the weather conditions in past years. The results will help you decide how hot, cold, wet, or windy it might be!

Date:

Astronomy

Feb. 06, 2007 Rise Set
Actual Time 7:07 AM PST 5:37 PM PST
Civil Twilight 6:39 AM PST 6:05 PM PST
Nautical Twilight 6:08 AM PST 6:36 PM PST
Astronomical Twilight 5:38 AM PST 7:06 PM PST
Moon 10:10 PM PST (2/6) 9:11 AM PST (2/6)
Length of Visible Light 11h 25m
Length of Day
10h 30m
Waning Gibbous, 81% of the Moon is Illuminated
Feb 6
Waning Gibbous
Feb 10
Last Quarter
Feb 17
New
Feb 23
First Quarter
Mar 3
Full

Hourly Weather History & Observations

Time (PST) Temp. Windchill Dew Point Humidity Pressure Visibility Wind Dir Wind Speed Gust Speed Precip Events Conditions
12:56 AM 50.0 °F - 46.9 °F 89% 30.15 in 3.0 mi North 6.9 mph - N/A   Clear
1:56 AM 48.9 °F - 46.9 °F 93% 30.16 in 3.0 mi Calm Calm - N/A   Clear
2:13 AM 48.2 °F - 46.4 °F 93% 30.15 in 3.0 mi Calm Calm - N/A   Scattered Clouds
2:56 AM 48.0 °F - 45.0 °F 89% 30.15 in 3.0 mi SSE 3.5 mph - N/A   Clear
3:15 AM 46.4 °F 44.3 °F 44.6 °F 93% 30.14 in 3.0 mi South 4.6 mph - N/A   Partly Cloudy
3:56 AM 48.0 °F - 45.0 °F 89% 30.14 in 3.0 mi South 3.5 mph - N/A   Partly Cloudy
4:56 AM 48.0 °F - 45.0 °F 89% 30.15 in 3.0 mi West 3.5 mph - N/A   Mostly Cloudy
5:56 AM 48.0 °F - 45.0 °F 89% 30.15 in 3.0 mi South 4.6 mph - N/A   Mostly Cloudy
6:56 AM 48.0 °F - 45.0 °F 89% 30.16 in 4.0 mi Calm Calm - N/A   Overcast
7:41 AM 48.2 °F - 44.6 °F 87% 30.16 in 2.5 mi SE 4.6 mph - N/A   Overcast
7:56 AM 48.0 °F - 45.0 °F 89% 30.16 in 2.0 mi ESE 6.9 mph - N/A   Overcast
8:56 AM 48.9 °F - 45.0 °F 86% 30.15 in 3.0 mi SE 11.5 mph - N/A   Scattered Clouds
9:56 AM 52.0 °F - 44.1 °F 74% 30.14 in 4.0 mi SSE 6.9 mph - N/A   Haze
10:56 AM 57.9 °F - 42.1 °F 56% 30.15 in 5.0 mi Calm Calm - N/A   Haze
11:56 AM 57.0 °F - 45.0 °F 64% 30.14 in 10.0 mi NNE 5.8 mph - N/A   Clear
12:56 PM 60.1 °F - 43.0 °F 53% 30.12 in 7.0 mi North 5.8 mph - N/A   Clear
1:56 PM 61.0 °F - 43.0 °F 52% 30.10 in 10.0 mi NNW 4.6 mph - N/A   Overcast
2:56 PM 61.0 °F - 42.1 °F 50% 30.09 in 10.0 mi NNW 6.9 mph - N/A   Mostly Cloudy
3:56 PM 59.0 °F - 44.1 °F 58% 30.09 in 10.0 mi NW 6.9 mph - N/A   Mostly Cloudy
4:56 PM 59.0 °F - 45.0 °F 60% 30.07 in 10.0 mi NW 4.6 mph - N/A   Overcast
5:56 PM 57.0 °F - 45.0 °F 64% 30.08 in 10.0 mi NNW 6.9 mph - N/A   Mostly Cloudy
6:56 PM 55.9 °F - 46.9 °F 72% 30.09 in 10.0 mi Calm Calm - N/A   Overcast
7:56 PM 55.9 °F - 48.0 °F 75% 30.09 in 10.0 mi Calm Calm - N/A   Overcast
8:56 PM 55.9 °F - 46.9 °F 72% 30.08 in 10.0 mi Calm Calm - N/A   Clear
9:56 PM 55.9 °F - 46.9 °F 72% 30.08 in 10.0 mi West 4.6 mph - N/A   Partly Cloudy
10:56 PM 54.0 °F - 46.9 °F 77% 30.07 in 10.0 mi East 3.5 mph - N/A   Overcast
11:56 PM 55.0 °F - 45.0 °F 69% 30.06 in 10.0 mi Calm Calm - N/A   Clear